www.pogodaiklimat.ru

Погода и климат >> Архив погоды >> Катар >> Доха


АРХИВ ПОГОДЫ в Дохе

Время (UTC), дата Ветер
(напр.,м/с)
 
Видим.   Явления Облачность Т
(С)
Тd
(С)
f
(%)
Тe
(С)
Тes
(С)
Комфортность P
(гПа)
Po
(гПа)
Тmin
(С)
Tmax
(С)
R
(мм)
R24
(мм)
S
(см)
06 13.02 З 9 19 км н/о +18.2 +8.1 52 +17 +17 по сезону 1024.1 1022.8 +15.4
09 13.02 СЗ 13 20 км н/о +21.8 +6.7 38 +23 +23 комфорт 1023.2 1021.9
12 13.02 С 11 20 км н/о +22.1 +4.9 33 +22 +22 комфорт 1020.8 1019.5
15 13.02 СЗ 7 20 км н/о +20.1 +4.8 37 +20 +20 по сезону 1021.4 1020.1
18 13.02 СЗ 5 20 км н/о +17.9 +6.7 48 +18 +18 по сезону 1022.9 1021.6 +22.7
21 13.02 СЗ 3 20 км н/о +16.5 +7.5 55 +16 +16 по сезону 1021.7 1020.4
00 14.02 З 4 20 км н/о +16.3 +8.1 58 +16 +16 по сезону 1020.4 1019.1
03 14.02 ЮЗ 1 15 км н/о +15.1 +8.3 64 +16 +16 по сезону 1021.2 1019.9
06 14.02 СЗ 7 19 км н/о +18.6 +8.7 52 +18 +18 по сезону 1022.6 1021.3 +14.8
09 14.02 С 10 20 км н/о +21.0 +7.4 41 +22 +22 комфорт 1020.8 1019.5
12 14.02 СВ 6 20 км н/о +20.5 +6.1 39 +21 +21 комфорт 1018.5 1017.2
15 14.02 СВ 6 20 км н/о +19.2 +10.6 57 +20 +20 по сезону 1018.8 1017.5
18 14.02 В 3 20 км н/о +18.4 +11.5 64 +19 +19 тепло 1019.5 1018.2 +21.3
21 14.02 В 2 14 км н/о +18.4 +11.5 64 +19 +19 тепло 1018.6 1017.3
00 15.02 С 1 17 км н/о +18.3 +12.0 67 +20 +20 тепло 1017.3 1016.0
03 15.02 СВ 3 18 км н/о +18.4 +12.4 68 +19 +19 тепло 1017.7 1016.4
06 15.02 В 10 20 км н/о +20.6 +13.3 63 +22 +22 комфорт 1018.8 1017.5 +17.5
09 15.02 В 8 20 км н/о +22.4 +12.9 55 +25 +25 комфорт 1018.4 1017.1
12 15.02 В 11 20 км н/о +21.5 +14.0 62 +24 +24 комфорт 1016.5 1015.2
15 15.02 В 11 20 км н/о +21.0 +12.8 59 +23 +23 комфорт 1015.2 1013.9
18 15.02 В 4 20 км н/о +20.8 +14.5 67 +24 +24 комфорт 1016.8 1015.5 +22.8
21 15.02 В 14 20 км н/о +20.8 +15.8 73 +23 +23 комфорт 1014.4 1013.1
00 16.02 В 9 20 км н/о +20.9 +16.3 75 +24 +24 комфорт 1014.3 1013.0
03 16.02 В 20 20 км н/о +21.4 +15.7 70 +25 +25 комфорт 1012.7 1011.4
06 16.02 ЮВ 11 18 км н/о +22.1 +15.5 66 +26 +26 душно 1016.0 1014.7 +19.8
09 16.02 ЮВ 11 20 км н/о +25.6 +10.6 39 +27 +27 жарко 1014.4 1013.1
12 16.02 В 8 13 км н/о +28.5 +7.9 27 +28 +28 жарко 1011.9 1010.6 0.3
15 16.02 В 3 12 км н/о +24.6 +12.6 47 +26 +26 жарко 1012.5 1011.2
18 16.02 СЗ 8 12 км н/о +24.7 +10.2 40 +26 +26 жарко 1015.3 1014.0 +29.3
21 16.02 З 8 10 км н/о +21.4 +14.8 66 +24 +24 комфорт 1015.5 1014.2
00 17.02 СЗ 9 11 км н/о +20.2 +15.9 76 +22 +22 комфорт 1015.0 1013.7 0.6
03 17.02 СЗ 16 15 км н/о +19.2 +13.8 71 +19 +19 тепло 1016.5 1015.2
06 17.02 СЗ 11 14 км н/о +20.3 +11.9 58 +21 +21 комфорт 1018.4 1017.1 +19.0
09 17.02 СЗ 20 19 км н/о +22.9 +5.8 33 +23 +23 комфорт 1017.4 1016.1
12 17.02 СЗ 20 20 км н/о +22.6 +4.2 30 +23 +23 комфорт 1015.7 1014.4 0.3
15 17.02 СЗ 12 20 км н/о +19.5 +4.8 38 +19 +19 по сезону 1016.8 1015.5
18 17.02 З 10 20 км н/о +17.4 +6.5 49 +16 +16 по сезону 1017.7 1016.4 +24.8
21 17.02 СЗ 11 20 км н/о +16.6 +5.8 49 +15 +15 по сезону 1017.2 1015.9
00 18.02 З 11 20 км н/о +16.9 +6.4 50 +15 +15 по сезону 1016.3 1015.0
03 18.02 З 6 20 км н/о +16.4 +6.4 52 +15 +15 по сезону 1017.3 1016.0
06 18.02 СЗ 8 17 км н/о +19.7 +7.5 45 +20 +20 тепло 1017.8 1016.5 +16.3
09 18.02 С 18 20 км н/о +22.2 +0.9 24 +22 +22 комфорт 1016.0 1014.7
12 18.02 С 15 20 км н/о +21.8 +3.9 31 +22 +22 комфорт 1013.3 1012.0
15 18.02 СЗ 13 20 км н/о +20.3 +2.9 32 +20 +20 по сезону 1012.9 1011.6
18 18.02 СЗ 8 20 км н/о +18.6 +5.7 43 +18 +18 по сезону 1013.1 1011.8 +23.0
21 18.02 СЗ 9 20 км н/о +18.1 +7.1 49 +17 +17 по сезону 1013.0 1011.7
00 19.02 СЗ 3 20 км н/о +17.7 +7.8 52 +18 +18 тепло 1011.0 1009.7
03 19.02 З 4 20 км н/о +17.8 +7.0 49 +18 +18 по сезону 1012.0 1010.7
06 19.02 С 4 20 км н/о +19.1 +6.7 44 +20 +20 тепло 1012.3 1011.0 +17.4
09 19.02 СЗ 4 20 км н/о +21.3 +6.1 37 +22 +22 комфорт 1011.6 1010.3
12 19.02 ЮЗ 6 20 км н/о +23.5 -1.8 19 +22 +22 комфорт 1010.4 1009.1
15 19.02 СЗ 14 20 км н/о +19.9 +3.9 35 +19 +19 по сезону 1013.2 1011.9
18 19.02 СЗ 14 20 км н/о +18.3 +5.9 44 +17 +17 по сезону 1016.2 1014.9 +23.9
21 19.02 СЗ 9 20 км н/о +17.8 +6.1 46 +17 +17 по сезону 1017.1 1015.8
00 20.02 З 11 20 км н/о +16.8 +5.6 48 +15 +15 по сезону 1017.0 1015.7
03 20.02 З 7 20 км н/о +16.1 +7.3 56 +15 +15 по сезону 1018.3 1017.0

 

Местоположение метеостанции Доха (Катар): широта 25.25 долгота 51.57 высота над уровнем моря 10 м.

В архиве по умолчанию представлена погода в Дохе за последнюю неделю. Архивные данные за месяц целиком и за предыдущие месяцы, начиная с января 2011 года, Вы можете получить, выбрав интересующий диапазон дат из раскрывающегося списка и нажав кнопку "Ввод!".


*Определитесь, кто Вы:
робот инопланетянин человек

Внимание! Время в таблицах - всемирное. Для получения местного времени необходимо прибавить поправку, которая равна 4 ч.

Смотрите также архив погоды в соседних городах и на ближайших метеорологических станциях:

Погода в Аэропорту Хамад (Катар) (5 км)
Погода в Духане (Катар) (84 км)
Погода в Абу Самба (Катар) (94 км)
Погода в Бахрейне (Бахрейн) (146 км)
Погода в Дахране (Саудовская Аравия) (180 км)
Погода в Аль-Ахсе (Саудовская Аравия) (210 км)
Погода в Аэропорту Король Фахд (Саудовская Аравия) (220 км)
Погода на Острове Киш (Иран) (278 км)
Погода в Бендер-Дейере (Иран) (289 км)
Погода в Абу-Даби Батин аэропорту (ОАЭ) (306 км)

Пояснения к столбцам:

Ветер - указаны скорость ветра в м/с - средняя за 10 мин, порывы в срок и между сроками (в фигурных скобках) и направление, откуда дует ветер: С - северный, СВ - северо-восточный, В - восточный, ЮВ - юго-восточный, Ю - южный, ЮЗ - юго-западный, З - западный, СЗ - северо-западный.
Видимость - горизонтальная дальность видимости в метрах или километрах. При видимости от 1 до 10 км при отсутствии осадков обычно наблюдается дымка, при ухудшении видимости до 1 км и менее - туман. В сухую погоду видимость может ухудшаться дымом, пылью или мглою.
Явления - указаны атмосферные явления, наблюдавшиеся в срок или в последний час перед сроком; фигурными скобками обозначены явления, наблюдавшиеся между сроками (за 1-3 часа до срока); квадратными скобками обозначены град или гололедные отложения с указанием их диаметра в мм.
Облачность - указаны через наклонную черту общая и нижняя облачность в баллах и высота нижней границы облаков в метрах; квадратными скобками обозначены формы облаков: Ci - перистые, Cs - перисто-слоистые, Cc - перисто-кучевые, Ac - высококучевые, As - высокослоистые, Sc - слоисто-кучевые, Ns - слоисто-дождевые, Cu - кучевые, Cb - кучево-дождевые. Подробнее классификацию облаков см. в Атласе облаков (PDF).
T - Температура воздуха - температура, измеренная на высоте 2 м над землей.
Td - Температура точки росы - температура, при понижении до которой содержащийся в воздухе водяной пар достигнет насыщения.
f - Относительная влажность воздуха - влажноcть воздуха, измеренная на высоте 2 м над землей.
Te - Эффективная температура - температура, которую ощущает одетый по сезону человек в тени. Характеристика душности погоды. При расчете учитывается влияние влажности воздуха и скорости ветра на теплоощущения человека.
Tes - Эффективная температура на солнце - температура, которую ощущает человек, с поправкой на солнечный нагрев. Характеристика знойности погоды. Зависит от высоты солнца над горизонтом, облачности и скорости ветра. Ночью, в пасмурную погоду, а также при ветре 12 м/с и более поправка равна нулю.
P - Атмосферное давление - приведенное к уровню моря атмосферное давление.
Po - Атмосферное давление - измеренное на уровне метеостанции атмосферное давление.
Tmin - Минимальная температура - минимум температуры воздуха на высоте 2 м над землей.
Tmax - Максимальная температура - максимум температуры воздуха на высоте 2 м над землей.
R - Количество осадков - Количество выпавших осадков за период времени, мм. При наведении курсора мыши на число - период времени, за который выпало указанное количество осадков.
R24 - Количество осадков - Количество выпавших осадков за 24 часа, мм.
S - Снежный покров - Высота снежного покрова, см. При наведении курсора мыши на число - состояние снежного покрова и степень покрытия местности в баллах.